Temp
-8 -6 -6 -7 -7 -7 -7 -7 -6 -6 -6 -6 -5 -5 -4 -5 -4 -5 -5 -5 -5 -5 -4 -4 -5 -4 -4 -4 -4 -4 -4 -5 -5 -5 -5 -5 -5 -6 -6 -6 -7 -7 -8 -9
-7 -5 -7 -8 -7 -7 -7 -8 -7 -7 -6 -6 -6 -5 -5 -4 -4 -4 -5 -5 -5 -4 -4 -4 -4 -4 -4 -4 -4 -4 -4 -4 -4 -5 -5 -5 -6 -6 -6 -7 -7 -8 -9 -9
-7 -6 -7 -7 -7 -7 -7 -7 -8 -7 -7 -6 -5 -5 -5 -4 -4 -4 -4 -5 -4 -4 -4 -4 -4 -4 -4 -4 -4 -4 -4 -4 -4 -5 -5 -5 -6 -6 -6 -7 -8 -9 -9 -9
-8 -7 -7 -7 -7 -7 -7 -8 -8 -8 -8 -7 -6 -6 -5 -5 -4 -4 -4 -4 -4 -4 -4 -4 -3 -3 -4 -3 -3 -4 -4 -4 -4 -5 -5 -5 -6 -6 -7 -7 -8 -9 -9 -9
-6 -6 -7 -7 -7 -7 -8 -9 -8 -8 -8 -7 -6 -6 -6 -5 -4 -4 -4 -4 -4 -4 -4 -3 -3 -3 -3 -3 -3 -4 -4 -4 -4 -4 -5 -6 -6 -7 -7 -8 -8 -9 -9 -9
-7 -7 -7 -6 -7 -8 -9 -9 -8 -7 -8 -7 -7 -7 -7 -6 -5 -4 -4 -4 -4 -4 -4 -3 -3 -3 -3 -3 -4 -4 -4 -4 -4 -4 -5 -6 -6 -7 -7 -8 -8 -9 -9 -9
-7 -6 -7 -7 -8 -8 -8 -9 -9 -8 -7 -7 -7 -7 -7 -6 -5 -4 -4 -4 -4 -4 -4 -4 -4 -3 -3 -3 -3 -3 -4 -4 -4 -4 -5 -6 -6 -7 -8 -8 -9 -9 -9 -9
-6 -6 -6 -6 -7 -7 -7 -8 -8 -7 -7 -7 -7 -6 -7 -7 -6 -5 -4 -4 -3 -3 -4 -4 -3 -3 -3 -3 -3 -3 -3 -4 -4 -4 -5 -6 -6 -7 -8 -9 -9 -9 -9 -10
-7 -6 -6 -6 -7 -7 -8 -8 -8 -8 -7 -7 -7 -6 -7 -7 -5 -4 -5 -4 -3 -3 -4 -4 -4 -3 -3 -3 -3 -3 -3 -4 -4 -4 -5 -6 -7 -7 -8 -9 -9 -9 -9 -10
-7 -7 -6 -7 -7 -7 -8 -8 -7 -7 -7 -7 -6 -7 -6 -6 -5 -4 -4 -4 -3 -3 -3 -3 -3 -3 -3 -3 -3 -3 -3 -3 -4 -4 -5 -6 -7 -7 -8 -9 -9 -9 -9 -10
-7 -7 -6 -7 -7 -7 -8 -7 -8 -7 -6 -7 -6 -6 -6 -6 -4 -4 -4 -4 -4 -4 -4 -4 -3 -3 -3 -3 -3 -3 -3 -3 -4 -4 -5 -6 -7 -8 -9 -9 -9 -10 -10 -10
-7 -7 -7 -6 -7 -7 -7 -7 -7 -7 -6 -6 -6 -6 -6 -6 -6 -5 -4 -4 -4 -4 -4 -4 -4 -4 -4 -3 -3 -3 -3 -4 -4 -4 -5 -6 -7 -8 -9 -10 -10 -9 -10 -10
-8 -7 -7 -7 -7 -7 -7 -7 -7 -7 -6 -6 -6 -6 -6 -6 -6 -6 -6 -5 -5 -5 -5 -4 -4 -4 -4 -4 -3 -4 -4 -4 -4 -4 -5 -6 -8 -9 -9 -10 -10 -10 -10 -9
-7 -7 -6 -6 -5 -6 -7 -7 -7 -7 -6 -6 -5 -7 -6 -6 -6 -7 -7 -6 -6 -5 -5 -5 -4 -4 -4 -4 -4 -4 -4 -4 -4 -4 -5 -6 -8 -9 -10 -10 -10 -10 -10 -10
-8 -7 -6 -6 -6 -7 -7 -7 -7 -6 -7 -6 -5 -7 -6 -6 -6 -7 -7 -7 -6 -6 -6 -6 -5 -5 -4 -4 -4 -4 -4 -4 -4 -5 -6 -7 -8 -9 -9 -9 -9 -9 -9 -9
-8 -7 -7 -6 -6 -6 -7 -7 -7 -7 -6 -6 -6 -6 -6 -6 -6 -6 -8 -7 -7 -6 -6 -6 -6 -5 -5 -5 -4 -4 -4 -4 -5 -6 -6 -7 -9 -9 -9 -9 -9 -9 -9 -9
-8 -8 -7 -6 -7 -7 -6 -6 -6 -6 -7 -6 -5 -5 -6 -6 -6 -6 -7 -7 -7 -7 -7 -6 -6 -6 -6 -6 -5 -5 -5 -5 -6 -7 -7 -7 -8 -9 -9 -9 -9 -9 -9 -9
-8 -8 -7 -7 -7 -7 -4 -6 -6 -6 -6 -5 -5 -5 -6 -6 -6 -6 -6 -7 -7 -7 -7 -6 -6 -6 -5 -6 -6 -6 -6 -6 -7 -7 -7 -7 -7 -8 -8 -9 -9 -9 -9 -9
-9 -8 -8 -7 -7 -6 -5 -6 -5 -5 -5 -5 -5 -5 -6 -6 -6 -5 -6 -6 -6 -6 -6 -6 -6 -6 -7 -7 -7 -6 -7 -7 -7 -7 -7 -7 -8 -7 -7 -8 -9 -9 -9 -9
-10 -9 -9 -8 -7 -6 -6 -5 -6 -6 -5 -5 -5 -5 -5 -6 -5 -4 -6 -6 -6 -6 -6 -6 -6 -6 -7 -7 -7 -6 -6 -6 -7 -7 -7 -7 -8 -7 -7 -8 -9 -9 -9 -9
-11 -10 -8 -8 -7 -6 -6 -6 -6 -6 -3 -5 -5 -5 -5 -5 -5 -5 -6 -6 -6 -6 -6 -6 -7 -7 -7 -7 -6 -6 -6 -7 -7 -7 -7 -7 -7 -8 -8 -8 -9 -9 -9 -9
-12 -10 -9 -8 -7 -7 -6 -6 -6 -6 -5 -5 -5 -5 -5 -5 -5 -6 -6 -6 -6 -6 -6 -6 -7 -7 -7 -7 -6 -6 -6 -6 -6 -7 -7 -7 -7 -8 -8 -8 -9 -9 -9 -9
-12 -11 -9 -9 -7 -7 -7 -6 -6 -5 -5 -6 -5 -6 -6 -5 -5 -6 -6 -6 -6 -6 -6 -6 -7 -7 -7 -7 -6 -6 -6 -6 -6 -7 -7 -7 -8 -8 -8 -8 -9 -9 -9 -9
-13 -11 -10 -9 -8 -7 -7 -7 -6 -6 -6 -6 -5 -6 -6 -6 -6 -6 -6 -6 -6 -6 -6 -6 -6 -7 -6 -6 -6 -6 -6 -6 -7 -7 -8 -8 -8 -8 -8 -8 -8 -9 -9 -9
-13 -12 -10 -9 -8 -8 -8 -7 -7 -6 -6 -6 -6 -6 -6 -6 -6 -6 -5 -6 -6 -6 -6 -6 -6 -6 -6 -6 -7 -6 -7 -7 -7 -7 -7 -8 -8 -8 -7 -8 -8 -8 -9 -9
-13 -12 -11 -9 -9 -8 -9 -7 -7 -7 -6 -6 -6 -6 -6 -6 -7 -6 -6 -6 -5 -6 -6 -6 -6 -6 -6 -7 -7 -7 -7 -7 -7 -7 -8 -8 -8 -8 -8 -7 -8 -9 -9 -10
Height
5882 5886 5889 5896 5901 5901 5903 5904 5904 5904 5905 5907 5908 5908 5907 5907 5908 5907 5907 5909 5910 5911 5913 5914 5916 5918 5920 5923 5927 5930 5933 5934 5935 5936 5937 5938 5939 5939 5938 5935 5934 5934 5933 5931
5877 5881 5891 5893 5896 5899 5902 5903 5903 5903 5903 5905 5906 5907 5907 5907 5908 5909 5908 5910 5912 5913 5914 5916 5918 5920 5921 5924 5928 5932 5935 5936 5937 5938 5939 5940 5940 5939 5938 5937 5936 5935 5935 5934
5873 5884 5886 5889 5892 5896 5899 5900 5901 5903 5904 5904 5905 5907 5906 5907 5908 5910 5911 5910 5914 5916 5917 5917 5918 5919 5923 5927 5930 5932 5935 5937 5939 5940 5940 5941 5940 5939 5940 5939 5938 5937 5936 5934
5867 5874 5879 5886 5890 5894 5896 5897 5898 5900 5903 5904 5904 5906 5906 5907 5908 5910 5912 5912 5914 5916 5918 5920 5920 5922 5925 5929 5931 5934 5936 5938 5940 5940 5941 5941 5939 5940 5941 5940 5939 5938 5936 5935
5859 5866 5873 5879 5887 5892 5895 5893 5895 5897 5900 5902 5904 5905 5905 5907 5908 5910 5912 5913 5914 5917 5919 5921 5923 5926 5928 5931 5933 5935 5937 5938 5940 5941 5941 5940 5940 5941 5941 5941 5939 5938 5937 5936
5855 5863 5867 5877 5883 5887 5889 5889 5890 5893 5897 5901 5902 5904 5905 5906 5907 5909 5911 5914 5915 5918 5921 5924 5925 5928 5930 5933 5934 5936 5937 5939 5940 5941 5941 5941 5941 5941 5941 5941 5939 5938 5937 5937
5843 5850 5859 5868 5874 5879 5882 5886 5886 5890 5894 5900 5901 5902 5904 5906 5906 5908 5910 5913 5915 5917 5922 5924 5927 5929 5932 5934 5935 5936 5938 5939 5940 5942 5941 5942 5941 5940 5940 5940 5940 5939 5937 5936
5836 5841 5849 5857 5865 5873 5877 5883 5883 5887 5894 5898 5899 5901 5903 5905 5905 5907 5908 5909 5914 5918 5921 5924 5927 5929 5932 5934 5936 5937 5938 5939 5940 5941 5941 5941 5941 5940 5940 5940 5940 5939 5937 5936
5826 5836 5849 5856 5863 5866 5871 5873 5883 5887 5891 5894 5896 5899 5902 5904 5903 5906 5907 5908 5915 5918 5922 5925 5928 5930 5932 5934 5936 5937 5938 5939 5939 5940 5940 5941 5940 5940 5941 5940 5940 5940 5938 5936
5822 5829 5840 5851 5855 5858 5864 5876 5877 5879 5884 5889 5894 5897 5901 5903 5903 5906 5909 5909 5914 5917 5922 5926 5928 5930 5932 5934 5936 5937 5938 5938 5939 5939 5939 5939 5939 5940 5939 5939 5939 5939 5937 5935
5809 5820 5831 5837 5840 5849 5855 5861 5868 5878 5883 5887 5892 5897 5901 5902 5901 5904 5909 5911 5915 5919 5923 5925 5927 5929 5931 5934 5935 5936 5937 5938 5938 5938 5938 5938 5938 5938 5938 5938 5938 5937 5936 5934
5802 5810 5816 5829 5841 5846 5854 5861 5866 5869 5876 5882 5889 5895 5898 5899 5899 5903 5908 5911 5914 5917 5921 5923 5926 5928 5930 5932 5934 5935 5935 5936 5937 5937 5937 5936 5936 5936 5937 5937 5937 5936 5934 5932
5789 5796 5806 5817 5827 5833 5840 5850 5860 5868 5876 5880 5885 5892 5896 5897 5899 5903 5906 5910 5912 5915 5919 5922 5925 5927 5929 5931 5932 5933 5934 5935 5936 5936 5935 5934 5934 5935 5936 5936 5935 5934 5932 5930
5778 5786 5798 5808 5823 5829 5833 5841 5851 5859 5865 5874 5880 5888 5893 5896 5898 5902 5905 5907 5911 5914 5917 5920 5923 5925 5927 5929 5930 5932 5933 5934 5934 5933 5933 5932 5933 5934 5934 5934 5933 5932 5930 5927
5769 5781 5793 5804 5810 5819 5829 5837 5844 5848 5859 5864 5878 5883 5888 5891 5893 5901 5905 5907 5909 5912 5915 5918 5920 5923 5925 5927 5928 5930 5931 5931 5931 5931 5931 5931 5932 5932 5932 5932 5931 5929 5926 5924
5762 5773 5783 5793 5802 5809 5817 5828 5837 5844 5853 5860 5869 5877 5885 5888 5891 5893 5900 5905 5908 5911 5914 5917 5919 5921 5923 5925 5926 5927 5928 5927 5928 5928 5929 5929 5929 5929 5930 5929 5927 5925 5923 5921
5752 5762 5773 5783 5793 5802 5802 5814 5825 5835 5844 5855 5860 5875 5881 5883 5888 5892 5896 5900 5905 5909 5912 5915 5918 5919 5921 5922 5923 5924 5925 5925 5926 5927 5927 5928 5927 5926 5926 5924 5923 5921 5919 5916
5740 5751 5760 5773 5783 5780 5797 5808 5817 5826 5834 5845 5856 5868 5875 5881 5885 5889 5893 5898 5902 5907 5910 5912 5915 5916 5918 5919 5921 5921 5922 5924 5925 5925 5925 5925 5923 5922 5922 5920 5918 5917 5915 5912
5732 5741 5753 5764 5771 5783 5787 5802 5807 5816 5827 5837 5847 5861 5869 5874 5877 5882 5888 5893 5899 5903 5906 5909 5912 5914 5915 5916 5918 5919 5921 5922 5922 5922 5922 5921 5920 5919 5918 5916 5913 5911 5910 5907
5719 5730 5743 5754 5761 5767 5783 5796 5805 5811 5812 5830 5840 5852 5859 5865 5867 5879 5885 5889 5894 5898 5901 5904 5907 5908 5911 5913 5915 5916 5917 5918 5918 5918 5918 5918 5917 5915 5913 5911 5908 5906 5905 5902
5710 5720 5735 5744 5750 5760 5779 5789 5800 5798 5817 5827 5835 5845 5850 5855 5865 5877 5879 5883 5888 5892 5896 5898 5901 5904 5907 5909 5911 5912 5914 5915 5916 5916 5916 5915 5914 5911 5908 5904 5902 5901 5900 5897
5704 5714 5725 5734 5742 5757 5774 5783 5784 5801 5810 5822 5830 5837 5842 5851 5857 5864 5871 5875 5880 5885 5890 5893 5896 5899 5901 5904 5906 5908 5910 5911 5910 5911 5911 5910 5908 5906 5902 5899 5897 5896 5893 5890
5696 5702 5713 5723 5738 5757 5767 5775 5785 5793 5801 5810 5820 5827 5834 5841 5847 5854 5860 5865 5872 5877 5882 5886 5890 5892 5895 5898 5901 5904 5906 5905 5904 5905 5904 5904 5901 5898 5896 5893 5892 5890 5887 5885
5686 5697 5707 5721 5733 5746 5759 5765 5776 5783 5791 5800 5809 5818 5826 5832 5839 5843 5850 5857 5862 5868 5875 5878 5882 5885 5889 5892 5894 5896 5897 5896 5896 5896 5896 5895 5893 5891 5889 5887 5885 5883 5881 5878
5681 5692 5704 5713 5725 5739 5749 5756 5766 5775 5782 5792 5800 5809 5817 5823 5829 5834 5842 5849 5855 5860 5865 5870 5874 5879 5882 5885 5887 5889 5889 5887 5888 5888 5888 5887 5886 5885 5883 5881 5879 5876 5874 5872
5675 5687 5697 5706 5718 5730 5739 5748 5759 5767 5774 5782 5791 5799 5808 5815 5821 5827 5833 5838 5844 5850 5855 5862 5868 5870 5874 5876 5878 5880 5880 5880 5880 5880 5880 5880 5879 5878 5876 5873 5870 5868 5866 5864
Wind_Speed
35 31 29 20 15 14 15 14 14 12 12 9 9 9 10 11 8 7 10 11 13 17 21 22 22 23 25 23 23 22 20 19 18 16 17 16 14 14 14 16 18 17 17 21
38 29 23 26 23 18 15 16 16 16 16 12 13 14 12 11 10 10 12 12 14 17 19 21 21 24 26 24 23 22 20 19 18 17 17 15 14 14 15 16 18 19 20 22
39 22 26 28 24 20 12 16 20 17 16 13 17 17 15 13 11 10 10 13 12 13 17 18 17 24 25 25 25 23 21 20 17 17 15 13 14 15 14 15 17 19 20 23
40 36 34 28 26 20 15 12 13 20 17 18 19 15 14 14 13 12 11 12 12 12 17 18 20 27 29 27 25 23 22 20 17 15 12 11 15 14 14 17 19 20 23 23
44 39 36 33 25 19 12 18 18 24 22 21 17 13 13 15 13 13 13 14 14 13 20 20 23 26 27 26 25 24 21 18 15 12 11 12 13 14 16 18 20 21 23 23
45 38 38 29 28 25 20 21 14 24 25 21 19 16 13 12 13 13 14 14 18 17 18 20 22 24 24 23 23 22 19 16 13 11 10 11 12 13 16 18 19 21 24 25
52 46 42 37 36 35 31 26 21 25 29 23 21 18 13 10 13 15 14 15 19 22 21 20 21 21 21 21 20 18 16 15 12 9 10 11 11 13 15 17 17 19 21 25
53 52 46 44 40 34 33 30 30 31 30 24 24 20 13 9 11 13 12 17 23 24 23 22 22 21 20 19 17 16 14 12 10 7 8 10 12 14 14 15 14 17 20 24
52 51 42 38 38 40 41 40 29 30 34 28 27 22 15 8 15 18 13 22 25 25 24 21 20 19 17 17 15 12 10 9 7 5 7 9 12 12 12 12 13 15 19 21
50 51 45 40 42 45 44 34 37 36 40 34 31 24 17 11 18 18 16 24 25 24 22 20 19 17 15 13 11 10 8 7 4 4 5 9 10 10 11 11 11 16 18 21
54 52 49 50 50 50 48 46 44 38 41 35 32 24 18 14 20 18 18 22 24 18 18 18 17 15 14 12 10 8 6 5 3 4 5 7 8 10 10 10 12 15 17 20
54 55 55 52 46 48 45 44 43 44 43 40 36 28 24 20 17 19 20 21 21 20 17 17 17 15 14 12 10 8 6 4 2 2 4 6 8 10 9 9 10 13 16 19
58 61 59 56 55 55 53 47 47 43 39 42 38 32 29 25 20 16 19 20 21 18 16 16 17 16 14 12 10 7 4 2 1 2 4 6 8 6 6 7 9 14 18 19
62 62 61 60 51 52 56 54 48 47 46 44 43 34 34 30 24 17 17 21 18 17 16 16 15 15 14 12 9 6 4 2 2 4 6 8 7 6 8 11 13 17 22 23
65 62 59 58 60 58 53 54 50 54 50 50 41 38 39 36 32 21 17 18 20 18 16 13 15 15 14 13 10 7 5 4 4 6 7 8 7 8 10 13 15 20 23 25
65 63 61 61 61 61 61 56 55 56 45 48 41 45 41 38 32 30 20 19 18 18 16 13 15 16 12 11 8 8 7 5 5 7 9 11 13 13 13 17 20 23 26 26
66 66 64 63 61 61 67 62 59 56 55 49 45 44 43 43 39 32 27 25 23 24 19 19 18 15 13 9 8 5 7 4 5 7 10 11 14 16 19 20 23 27 26 28
66 68 68 64 62 68 62 61 60 59 61 55 46 42 48 44 40 38 35 33 30 27 26 24 19 16 12 10 8 11 6 1 2 6 9 12 14 16 19 22 25 28 27 30
63 69 68 66 66 66 65 61 61 59 59 60 55 46 47 47 46 44 39 37 33 30 26 23 20 15 10 9 12 14 8 2 4 6 10 15 17 18 19 20 26 26 27 31
63 67 70 68 67 70 65 59 60 58 59 53 55 50 45 52 49 39 38 38 31 27 32 30 23 19 16 14 14 14 9 2 4 9 13 14 19 23 22 21 24 25 27 31
63 63 67 69 69 69 63 59 57 64 51 50 47 50 52 52 45 39 38 37 35 30 36 34 25 24 22 21 18 18 14 9 7 9 13 19 19 18 19 21 21 26 28 29
63 61 63 67 71 66 59 60 63 58 49 43 44 43 47 44 44 43 46 44 40 36 39 36 32 29 28 23 20 21 23 24 17 16 18 22 23 23 23 23 21 26 27 28
65 65 62 64 65 60 58 57 55 55 54 50 44 43 45 39 38 39 53 50 45 43 42 39 37 33 25 26 27 24 24 27 24 19 21 22 23 27 30 23 20 24 27 27
63 65 63 57 59 62 57 54 53 52 57 54 48 45 39 39 38 37 52 54 49 45 43 44 42 35 32 29 26 27 31 29 25 23 24 25 26 32 33 25 23 25 28 26
63 62 63 59 55 52 54 55 50 52 51 53 50 47 42 41 40 41 41 54 57 53 53 48 46 44 39 34 35 31 31 29 29 28 29 28 29 34 32 28 28 28 26 25
63 60 61 60 54 50 49 55 51 49 50 48 51 47 44 42 40 39 34 34 38 51 54 51 48 48 42 37 33 32 30 32 34 34 32 32 33 39 34 33 29 27 27 26
Wind_Direction
228 222 215 208 198 214 211 212 219 210 207 206 218 217 179 167 167 153 132 146 153 151 148 151 153 151 151 152 147 138 138 141 140 136 126 120 117 112 99 87 83 82 76 67
227 215 214 220 219 218 212 208 223 220 216 200 210 197 182 171 164 158 138 141 152 148 151 150 155 158 160 157 149 143 140 142 144 134 126 124 120 104 87 82 82 78 69 61
231 226 222 212 217 226 241 209 211 225 230 207 205 198 185 179 173 174 161 144 153 157 153 145 153 168 168 158 153 147 146 144 141 131 122 119 107 91 86 85 81 76 70 63
225 225 224 218 216 221 220 220 226 215 229 203 200 182 183 188 181 186 186 164 162 158 158 142 135 146 153 150 145 148 143 144 139 127 127 117 102 96 95 84 73 71 63 56
222 219 218 214 213 221 213 235 237 210 215 201 183 166 155 180 180 182 189 183 162 165 160 144 143 141 144 147 151 148 147 141 133 128 127 107 101 96 85 75 66 58 53 47
220 223 219 211 211 218 219 232 225 210 206 194 178 161 144 158 171 179 182 182 167 169 167 157 151 149 149 151 150 147 147 143 133 128 113 101 91 82 77 69 60 49 43 40
216 217 215 212 211 215 219 228 210 214 199 177 176 171 139 156 162 177 182 201 184 167 168 158 157 156 156 156 152 151 149 141 131 123 110 99 89 81 69 62 58 46 36 28
220 217 211 206 209 210 218 222 212 208 190 181 180 161 158 164 171 171 190 192 180 170 175 173 166 162 162 158 159 153 146 138 133 119 106 88 81 81 76 70 57 45 35 29
216 221 218 216 209 209 212 218 207 202 188 188 185 168 162 176 182 170 158 158 174 171 175 173 170 162 162 161 159 156 143 140 125 115 100 86 83 85 85 71 53 44 37 28
217 218 216 212 210 210 215 216 208 201 195 192 182 172 170 187 174 176 167 162 172 166 174 178 171 166 163 166 161 155 145 135 125 106 83 73 72 75 80 67 49 39 32 18
213 213 212 211 208 209 208 206 211 210 197 195 185 173 174 181 176 172 174 165 167 170 174 176 174 172 171 173 168 159 145 136 137 89 67 62 64 74 75 62 35 24 16 8
211 211 211 209 211 211 213 218 212 210 201 194 187 172 173 170 146 163 174 176 176 173 178 179 177 179 181 180 172 162 145 139 131 59 56 59 57 58 55 40 20 7 352 352
208 210 209 205 205 208 212 212 213 219 209 200 187 180 179 167 156 172 165 172 171 171 179 183 184 186 187 186 177 161 154 144 333 12 23 38 60 50 20 10 359 342 342 340
212 211 209 207 207 208 209 211 211 212 207 201 193 184 185 177 169 182 188 169 163 169 171 186 196 196 194 190 180 188 186 232 304 346 17 30 26 360 344 339 340 334 334 336
212 213 212 209 208 211 213 213 208 212 210 209 193 193 190 188 177 184 214 206 183 171 179 186 201 203 200 201 195 210 224 252 321 343 16 15 358 335 331 325 323 324 324 328
210 213 212 210 213 211 212 213 212 214 213 207 203 196 192 193 193 181 183 213 219 197 181 195 198 204 208 215 214 232 248 284 318 356 1 349 338 326 324 315 316 316 319 323
208 212 212 210 212 215 215 211 211 211 212 209 209 193 200 201 201 201 194 198 215 229 204 206 219 200 208 217 235 262 264 295 343 347 340 336 328 317 311 309 313 313 318 317
208 210 212 211 210 217 214 214 215 212 212 208 207 201 204 204 203 207 209 215 221 222 227 204 226 218 209 221 241 262 271 182 33 16 1 349 334 323 310 310 306 310 309 316
211 210 212 213 213 216 220 213 219 219 214 211 211 201 203 207 208 210 211 216 226 218 216 203 226 216 203 231 253 262 198 188 12 3 356 337 328 328 314 308 298 302 303 312
214 212 212 213 215 217 217 216 219 223 222 218 213 204 206 209 218 214 214 217 221 224 215 209 217 215 219 232 249 243 212 154 18 341 329 336 330 319 316 309 295 296 300 305
214 216 213 215 216 217 216 220 218 225 224 222 218 211 213 213 220 217 213 221 219 228 214 217 210 219 223 237 242 233 224 269 303 304 321 322 319 313 319 328 293 289 294 300
212 217 216 217 218 218 217 218 222 224 229 223 225 223 223 221 216 212 215 220 221 221 215 214 214 220 233 243 244 241 247 271 296 308 311 317 317 326 326 322 299 286 288 292
212 214 215 218 217 218 218 222 222 223 225 228 224 229 232 228 225 224 213 217 220 217 218 218 217 225 234 243 247 246 261 272 294 301 297 304 316 322 325 315 293 286 287 294
212 215 217 219 217 215 216 223 219 223 226 225 227 226 231 232 232 229 216 216 218 222 220 228 231 227 240 248 258 258 276 283 295 295 288 295 315 319 318 307 297 290 289 291
210 213 216 218 219 218 219 220 218 220 224 224 226 226 225 227 232 234 229 220 222 226 229 232 237 244 247 255 260 267 281 280 286 283 288 295 309 309 307 301 294 287 285 292
209 213 217 218 217 216 217 219 216 220 222 222 222 226 226 222 226 230 228 227 228 224 230 233 237 244 245 255 257 265 262 266 270 274 281 286 299 301 299 300 285 280 287 294